Погода Благодарный

Погода Благодарный : погода сейчас, прогноз погоды и архив. Всё, что Вы хотите узнать о погоде Благодарный!

Поиск расширенной информации на нашем сайте:

Другие новости

Новости СМИ2

Главная страница сайта

Новости сайта

03.07.2017

Напоминаем, что на нашем специализированном сайте Метеоцентр.Азия вы можете получить высокодетализированные автоматические прогнозы погоды по пунктам России, СНГ и мира в авиационном формате (включающие направление и скорость ветра, видимость, явления погоды, количество и форму облачности, нижнюю и верхнюю границу облачности).


Погода Благодарный - сегодня

Время (UTC), дата Ветер
(°,м/с) 
Видим.   Явления Облачность Т
(°С)
Тd
(°С)
f(%) Тe
(°С)
Pmin
(гПа)
dP
(гПа)
Po
(мм)
O2
(г/м3)
Тmin Tmax R s Состояние
почвы
15 17.10.17 270 (З) 3{12}  20000 м    10/10 600 м 
[Sc]
+14.1 +7.5 64 +14  1017.8  -0.2  749  286    +14.9       
18 17.10.17 270 (З) 4{11}  10 км  слаб. ливневой дождь  10/10 600 м кучево-дожд. 
[Cb cap]
+13.2 +11 87 +16  1018.6  0.8  749  286           
21 17.10.17 280 (З) 20000 м  {ливн. осадки}  10/10 600 м кучево-дожд. 
[Cb cap]
+12.7 +10 84 +14  1019.8  750  287           
00 18.10.17 290 (З) 3{12}  20000 м  {ливн. осадки}  3/3 600 м 
[Sc]
+11.5 +7.9 79 +11  1021.7  1.8  752  289           
03 18.10.17 тихо ()   20000 м    10/10 600 м 
[Sc]
+8.5 +6.8 89 +9  1023.6  1.6  753  293  +8.5      влажная 
06 18.10.17 240 (ЮЗ) 20000 м    10/10 600 м 
[Sc]
+11.9 +9 82 +12  1024.8  1.5  754  290  +8.4         
09 18.10.17 300 (СЗ) 20000 м    8/6 600 м средняя 
[Sc|Ac trans]
+14.9 +8.7 66 +16  1024.5  -0.2  754  287           
12 18.10.17 240 (ЮЗ) 20000 м    3/3 600 м 
[Sc]
+16.4 +8.5 59 +17  1023.4  -0.9  753  285           
15 18.10.17 тихо ()   20000 м    1/1 600 м 
[Sc]
+11.6 +8.6 82 +12  1023.9  0.1  753  290    +16.8       
18 18.10.17 тихо ()   20000 м    ясно 
+7.3 +6.6 95 +7  1024.3  0.1  753  295           
21 18.10.17 тихо ()   4000 м  дымка  ясно 
+5.5 +5.3 99 +6  1023.8  -0.6  753  297           
00 19.10.17 тихо ()   20000 м    ясно 
+6.8 +6.8 100 +7  1023.4  -0.3  753  295           
03 19.10.17 тихо ()   4000 м  дымка  3/3 300 м 
[St]
+4.2 +4.2 100 +4  1023.7  753  298  +4.2         
06 19.10.17 090 (В) 4000 м  дымка{туман}  10/10 600 м 
[Sc]
+7.7 +7.7 100 +9  1023.7  0.3  753  294  +3.9         
09 19.10.17 240 (ЮЗ) 20000 м    10/0 верхняя 
[Cs]
+16.6 +11 69 +20  1022.1  -1  752  284           
12 19.10.17 200 (Ю) 20000 м    10/9 600 м верхняя 
[Sc|Cs]
+18.1 +9.9 59 +20  1020.4  -1.5  751  282           
15 19.10.17 тихо ()   20000 м    10/0 верхняя 
[Cs]
+11.1 +8.9 86 +11  1020.7  -0.2  751  289    +18.5       
18 19.10.17 290 (З) 4000 м  дымка  ясно 
+8.1 +7.8 98 +9  1020.6  -0.3  751  292           
21 19.10.17 тихо ()   4000 м  дымка  ясно 
+6.3 +5.9 97 +6  1020.2  -0.6  750  294           
00 20.10.17 280 (З) 4000 м  дымка  ясно 
+6.5 +6.5 100 +7  1019.9  -0.7  750  294           
03 20.10.17 270 (З) 4000 м  дымка  ясно 
+5.9 +5.9 100 +7  1019.9  750  295  +5.6        сухая 
06 20.10.17 250 (З) 4000 м  дымка  ясно 
+10.3 +8.3 87 +11  1020.1  0.5  750  290           
09 20.10.17 250 (З) 20000 м    ясно 
+18.6 +9.7 56 +21  1018.6  -1  750  281           
12 20.10.17 290 (З) 20000 м    8/0 верхняя 
[Ci fib]
+20.4 +8.3 46 +20  1017.4  -1  749  279           
15 20.10.17 350 (С) 20000 м    4/0 верхняя 
[Ci fib]
+14.6 +8.9 69 +16  1018.6  0.8  749  285    +20.6       
Время (UTC), дата Ветер
(°,м/с) 
Видим.   Явления Облачность Т
(°С)
Тd
(°С)
f(%) Тe
(°С)
Pmin
(гПа)
dP
(гПа)
Po
(мм)
O2
(г/м3)
Тmin Tmax R s Состояние
почвы

Для получения пояснительной информации подведите курсор к названию столбца.

ПОГОДА Благодарный - архив

Всё, что Вы хотите узнать о погоде Благодарный - удобно и подробно!

Выберите нужную дату (начиная с 1 января 2015* года) и нажмите кнопку "Найти".
Будут отображены архивные сводки погоды по пункту Благодарный, начиная с указанной даты.


Отображать данные в формате CSV (для использования в таблицах Excel)


Внимание! Наш архив погоды предназначен исключительно для личного некоммерческого использования в познавательных целях. Если Вам необходимы официальные справки о состоянии погоды (для производственных, юридических, коммерческих и т.п. целей), обращайтесь в органы Росгидромета.

*Примечание: данная дата относится к архиву по метеостанциям СССР (Россия, СНГ, Балтия).
Архив по метеостанциям Зарубежной Европы и Азии (кроме Китая) хранится 10 дней, по другим регионам земного шара (Китай, Африка, Америка, Австралия, Океания) - 1 день.

Благодарный - район местоположения метеостанции


Название, широта, долгота, высота метеостанции:
Благодарный 45.1°ш. 43.4°д. 162 м над ур. моря [Российская Федерация]

Дополнительная информация

В oтличие oт бoльшинства пoгoдных сайтoв мы публикуем пoдрoбную метеoинфoрмацию в детальнoм прoфессиoнальнoм фoрмате.

Характеристики температуры и влажнoсти вoздуха измеряются на высoте 2 м в тени вдали oт зданий и деревьев.
Скoрoсть ветра измеряется на высoте 10 м (на урoвне рoста челoвека скoрoсть ветра ниже в 1.5-2 раза). Если метеoстанция нахoдится в гoрoде или в лесу, тo скoрoсть ветра занижена на 2-4 м/с пo сравнению с oткрытым местoм. Скoрoсть ветра над акватoриями крупных рек и oзёр, а также на вершинах хoлмoв на 2-5 м/с выше, чем в oбычных услoвиях.
Атмoсфернoе давление в разных тoчках местнoсти мoжет значительнo oтличаться oт давления на метеoстанции, в зависимoсти oт услoвий рельефа (при пoдъёме на 10 м давление пoнижается примернo на 1 мм рт.ст.).